QPF
0.13 0.13 0.09 0.08 0.07 0.05 0.04 0.05 0.06 0.05 0.06 0.10 0.13 0.16 0.16 0.12 0.09 0.08 0.10 0.12 0.15 0.15 0.13 0.09 0.07 0.06 0.06 0.06 0.10 0.11 0.10 0.08 0.07 0.06 0.04 0.03 0.03 0.02 0.02 0.03 0.05 0.06 0.07
0.17 0.11 0.07 0.06 0.05 0.04 0.04 0.04 0.05 0.05 0.05 0.06 0.08 0.06 0.07 0.09 0.08 0.07 0.09 0.15 0.19 0.12 0.07 0.05 0.04 0.04 0.04 0.05 0.06 0.07 0.07 0.07 0.08 0.07 0.04 0.03 0.02 0.02 0.02 0.03 0.03 0.03 0.05
0.13 0.09 0.05 0.05 0.04 0.04 0.08 0.08 0.05 0.04 0.04 0.05 0.08 0.07 0.07 0.07 0.08 0.06 0.06 0.07 0.08 0.07 0.06 0.03 0.03 0.03 0.04 0.03 0.04 0.05 0.05 0.04 0.06 0.07 0.05 0.03 0.02 0.02 0.02 0.03 0.04 0.04 0.05
0.09 0.06 0.05 0.08 0.05 0.05 0.09 0.08 0.06 0.04 0.04 0.06 0.09 0.09 0.06 0.06 0.07 0.07 0.07 0.08 0.08 0.08 0.05 0.03 0.03 0.03 0.02 0.03 0.02 0.03 0.03 0.03 0.02 0.03 0.03 0.04 0.04 0.04 0.03 0.03 0.03 0.04 0.05
0.05 0.06 0.07 0.09 0.07 0.07 0.08 0.07 0.06 0.06 0.06 0.09 0.11 0.12 0.11 0.09 0.08 0.09 0.10 0.11 0.09 0.08 0.06 0.04 0.03 0.02 0.02 0.01 0.01 0.01 0.01 0.02 0.02 0.01 0.02 0.03 0.04 0.05 0.04 0.02 0.01 0.03 0.05
0.05 0.07 0.08 0.08 0.07 0.08 0.07 0.06 0.06 0.07 0.07 0.09 0.12 0.16 0.14 0.09 0.07 0.07 0.08 0.11 0.10 0.08 0.06 0.05 0.04 0.02 0.01 0.01 0.01 0.01 0.01 0.01 0.01 0.01 0.02 0.02 0.03 0.03 0.04 0.04 0.02 0.02 0.04
0.12 0.12 0.12 0.12 0.10 0.09 0.07 0.07 0.06 0.06 0.07 0.09 0.12 0.15 0.14 0.09 0.07 0.05 0.06 0.07 0.07 0.06 0.05 0.04 0.04 0.03 0.02 0.01 0.01 0.01 0.01 0.01 0.01 0.01 0.02 0.02 0.02 0.03 0.04 0.04 0.02 0.02 0.04
0.08 0.12 0.13 0.13 0.10 0.08 0.08 0.06 0.05 0.06 0.10 0.11 0.15 0.16 0.14 0.12 0.09 0.06 0.05 0.06 0.06 0.05 0.04 0.03 0.03 0.03 0.02 0.02 0.01 0.01 0.01 0.01 0.01 0.01 0.01 0.01 0.01 0.02 0.03 0.03 0.03 0.02 0.03
0.09 0.11 0.09 0.08 0.07 0.07 0.07 0.07 0.05 0.06 0.09 0.12 0.14 0.18 0.14 0.10 0.08 0.07 0.07 0.07 0.06 0.05 0.04 0.04 0.04 0.03 0.02 0.02 0.01 0.01 0.01 0.00 0.00 0.01 0.01 0.01 0.01 0.01 0.02 0.02 0.03 0.04 0.04
0.06 0.05 0.05 0.06 0.07 0.07 0.07 0.07 0.06 0.06 0.06 0.06 0.06 0.08 0.08 0.06 0.06 0.06 0.06 0.06 0.06 0.05 0.03 0.04 0.02 0.01 0.01 0.01 0.01 0.01 0.01 0.01 0.01 0.01 0.01 0.01 0.01 0.01 0.02 0.02 0.02 0.03 0.04
0.04 0.04 0.04 0.07 0.09 0.09 0.07 0.07 0.06 0.04 0.03 0.03 0.03 0.03 0.04 0.05 0.05 0.06 0.07 0.06 0.05 0.04 0.03 0.03 0.02 0.01 0.01 0.01 0.01 0.01 0.01 0.01 0.01 0.01 0.01 0.01 0.01 0.01 0.02 0.02 0.02 0.02 0.02
0.05 0.05 0.04 0.06 0.10 0.09 0.08 0.08 0.05 0.03 0.03 0.03 0.02 0.03 0.04 0.04 0.04 0.05 0.05 0.05 0.04 0.03 0.03 0.02 0.01 0.01 0.01 0.00 0.00 0.00 0.00 0.01 0.01 0.01 0.01 0.01 0.01 0.01 0.01 0.02 0.02 0.02 0.02
0.04 0.07 0.05 0.05 0.08 0.10 0.09 0.07 0.05 0.04 0.03 0.03 0.03 0.03 0.03 0.04 0.05 0.06 0.05 0.05 0.03 0.03 0.02 0.01 0.01 0.01 0.01 0.00 0.00 0.01 0.01 0.02 0.02 0.02 0.02 0.01 0.01 0.01 0.01 0.01 0.01 0.01 0.01
0.04 0.07 0.06 0.04 0.07 0.08 0.07 0.07 0.07 0.03 0.02 0.02 0.02 0.02 0.02 0.03 0.04 0.06 0.06 0.04 0.04 0.03 0.02 0.02 0.01 0.01 0.01 0.01 0.01 0.01 0.01 0.01 0.01 0.01 0.01 0.01 0.01 0.01 0.01 0.01 0.01 0.01 0.01
0.08 0.08 0.08 0.04 0.08 0.09 0.08 0.07 0.06 0.02 0.01 0.01 0.01 0.01 0.02 0.02 0.03 0.05 0.06 0.04 0.03 0.02 0.02 0.02 0.01 0.02 0.02 0.01 0.01 0.01 0.01 0.01 0.00 0.01 0.01 0.01 0.01 0.01 0.01 0.01 0.01 0.01 0.01
0.07 0.09 0.08 0.07 0.09 0.11 0.10 0.08 0.04 0.02 0.01 0.01 0.01 0.01 0.01 0.02 0.04 0.06 0.06 0.05 0.04 0.03 0.02 0.02 0.01 0.01 0.01 0.01 0.01 0.01 0.01 0.01 0.01 0.01 0.01 0.02 0.02 0.02 0.02 0.02 0.02 0.02 0.02
0.05 0.05 0.05 0.07 0.06 0.09 0.11 0.09 0.05 0.02 0.01 0.01 0.01 0.01 0.01 0.03 0.05 0.05 0.04 0.05 0.05 0.03 0.02 0.03 0.02 0.01 0.01 0.00 0.00 0.01 0.02 0.05 0.03 0.01 0.02 0.01 0.02 0.02 0.02 0.01 0.01 0.01 0.01
0.04 0.03 0.04 0.04 0.04 0.07 0.09 0.09 0.05 0.02 0.01 0.02 0.02 0.02 0.02 0.03 0.04 0.04 0.05 0.05 0.04 0.04 0.03 0.02 0.02 0.01 0.01 0.00 0.00 0.01 0.02 0.03 0.01 0.01 0.01 0.01 0.01 0.01 0.01 0.01 0.01 0.01 0.01
0.08 0.06 0.05 0.05 0.05 0.06 0.08 0.08 0.05 0.03 0.02 0.02 0.02 0.02 0.02 0.01 0.02 0.03 0.03 0.04 0.04 0.04 0.04 0.02 0.01 0.01 0.00 0.01 0.01 0.01 0.01 0.01 0.02 0.04 0.03 0.02 0.01 0.01 0.01 0.01 0.01 0.01 0.01
0.14 0.10 0.06 0.06 0.06 0.05 0.07 0.06 0.03 0.02 0.02 0.02 0.02 0.02 0.02 0.01 0.01 0.02 0.02 0.03 0.04 0.04 0.04 0.02 0.01 0.00 0.00 0.01 0.01 0.01 0.01 0.01 0.02 0.04 0.04 0.02 0.02 0.02 0.02 0.02 0.03 0.03 0.02
0.16 0.10 0.06 0.06 0.05 0.05 0.05 0.04 0.03 0.02 0.02 0.02 0.02 0.02 0.01 0.01 0.01 0.01 0.02 0.02 0.03 0.03 0.03 0.02 0.01 0.01 0.00 0.01 0.02 0.02 0.01 0.01 0.01 0.02 0.02 0.02 0.03 0.03 0.02 0.03 0.05 0.05 0.04
0.06 0.07 0.08 0.06 0.05 0.04 0.03 0.03 0.03 0.02 0.02 0.02 0.02 0.01 0.01 0.01 0.01 0.02 0.02 0.03 0.03 0.02 0.03 0.02 0.01 0.01 0.01 0.01 0.01 0.01 0.01 0.01 0.02 0.02 0.02 0.03 0.04 0.04 0.04 0.05 0.07 0.06 0.04
0.03 0.04 0.07 0.06 0.04 0.03 0.03 0.03 0.02 0.02 0.02 0.02 0.02 0.02 0.02 0.02 0.02 0.02 0.02 0.02 0.02 0.02 0.03 0.02 0.02 0.02 0.01 0.01 0.01 0.01 0.01 0.01 0.01 0.01 0.01 0.01 0.02 0.03 0.04 0.05 0.05 0.04 0.04
0.03 0.04 0.06 0.05 0.04 0.03 0.02 0.02 0.01 0.01 0.01 0.01 0.02 0.02 0.02 0.02 0.02 0.02 0.02 0.02 0.01 0.02 0.04 0.03 0.02 0.02 0.01 0.01 0.01 0.01 0.00 0.00 0.00 0.00 0.00 0.00 0.01 0.02 0.04 0.04 0.04 0.03 0.03
0.02 0.02 0.02 0.03 0.02 0.02 0.02 0.01 0.01 0.01 0.01 0.02 0.02 0.02 0.02 0.02 0.03 0.02 0.02 0.01 0.01 0.02 0.03 0.02 0.01 0.01 0.01 0.01 0.01 0.01 0.00 0.00 0.00 0.00 0.00 0.00 0.00 0.01 0.02 0.03 0.03 0.03 0.03
0.02 0.02 0.02 0.02 0.02 0.02 0.02 0.01 0.01 0.01 0.01 0.02 0.02 0.02 0.02 0.02 0.02 0.01 0.02 0.02 0.02 0.02 0.02 0.02 0.01 0.01 0.00 0.00 0.00 0.00 0.00 0.00 0.00 0.00 0.00 0.00 0.00 0.01 0.01 0.01 0.02 0.03 0.03
MSLP
1011.82 1011.54 1011.23 1010.85 1010.40 1009.91 1009.41 1008.92 1008.49 1008.15 1007.90 1007.75 1007.67 1007.64 1007.64 1007.65 1007.66 1007.67 1007.69 1007.75 1007.85 1008.01 1008.21 1008.45 1008.71 1008.95 1009.16 1009.31 1009.40 1009.42 1009.39 1009.30 1009.16 1008.99 1008.78 1008.54 1008.26 1007.95 1007.62 1007.29 1006.99 1006.74 1006.57
1012.90 1012.62 1012.30 1011.91 1011.44 1010.91 1010.35 1009.81 1009.34 1008.95 1008.67 1008.48 1008.35 1008.26 1008.18 1008.10 1007.99 1007.89 1007.82 1007.79 1007.83 1007.96 1008.17 1008.43 1008.71 1008.98 1009.19 1009.33 1009.39 1009.36 1009.27 1009.12 1008.94 1008.74 1008.52 1008.28 1008.02 1007.72 1007.40 1007.07 1006.74 1006.46 1006.25
1013.85 1013.60 1013.30 1012.92 1012.44 1011.90 1011.32 1010.76 1010.25 1009.84 1009.52 1009.30 1009.13 1008.99 1008.84 1008.68 1008.49 1008.29 1008.13 1008.03 1008.02 1008.11 1008.30 1008.56 1008.83 1009.09 1009.29 1009.40 1009.42 1009.35 1009.21 1009.02 1008.82 1008.61 1008.40 1008.19 1007.95 1007.69 1007.39 1007.07 1006.74 1006.44 1006.18
1014.64 1014.41 1014.13 1013.77 1013.32 1012.79 1012.21 1011.63 1011.11 1010.68 1010.34 1010.09 1009.89 1009.71 1009.53 1009.31 1009.07 1008.82 1008.59 1008.44 1008.38 1008.43 1008.57 1008.79 1009.04 1009.26 1009.42 1009.49 1009.47 1009.36 1009.19 1008.99 1008.78 1008.59 1008.41 1008.23 1008.04 1007.83 1007.57 1007.28 1006.96 1006.64 1006.36
1015.23 1015.01 1014.76 1014.43 1014.01 1013.49 1012.92 1012.34 1011.81 1011.36 1011.01 1010.74 1010.52 1010.33 1010.13 1009.90 1009.64 1009.37 1009.12 1008.93 1008.83 1008.82 1008.92 1009.08 1009.26 1009.42 1009.53 1009.55 1009.48 1009.35 1009.16 1008.96 1008.77 1008.61 1008.47 1008.35 1008.22 1008.06 1007.85 1007.60 1007.31 1007.00 1006.71
1015.65 1015.43 1015.19 1014.88 1014.47 1013.97 1013.41 1012.83 1012.29 1011.83 1011.46 1011.18 1010.96 1010.78 1010.59 1010.38 1010.13 1009.87 1009.61 1009.40 1009.26 1009.21 1009.24 1009.32 1009.42 1009.51 1009.55 1009.52 1009.43 1009.27 1009.09 1008.90 1008.75 1008.62 1008.54 1008.47 1008.40 1008.30 1008.15 1007.94 1007.69 1007.41 1007.13
1015.91 1015.68 1015.44 1015.13 1014.74 1014.25 1013.69 1013.10 1012.55 1012.07 1011.69 1011.40 1011.18 1011.01 1010.85 1010.67 1010.46 1010.22 1009.98 1009.77 1009.60 1009.50 1009.45 1009.46 1009.48 1009.49 1009.47 1009.40 1009.28 1009.12 1008.95 1008.80 1008.68 1008.60 1008.56 1008.54 1008.51 1008.47 1008.37 1008.22 1008.02 1007.77 1007.52
1016.07 1015.82 1015.57 1015.27 1014.87 1014.38 1013.81 1013.21 1012.64 1012.14 1011.73 1011.43 1011.22 1011.06 1010.92 1010.78 1010.61 1010.41 1010.19 1009.98 1009.79 1009.64 1009.53 1009.46 1009.41 1009.36 1009.28 1009.18 1009.06 1008.91 1008.77 1008.65 1008.57 1008.53 1008.52 1008.53 1008.54 1008.53 1008.47 1008.37 1008.22 1008.03 1007.82
1016.19 1015.92 1015.66 1015.35 1014.94 1014.44 1013.86 1013.24 1012.65 1012.11 1011.68 1011.36 1011.13 1010.97 1010.85 1010.73 1010.59 1010.42 1010.23 1010.02 1009.82 1009.63 1009.48 1009.35 1009.24 1009.15 1009.05 1008.94 1008.82 1008.70 1008.60 1008.51 1008.46 1008.44 1008.45 1008.47 1008.48 1008.49 1008.46 1008.39 1008.28 1008.15 1007.99
1016.31 1016.04 1015.77 1015.44 1015.03 1014.51 1013.91 1013.27 1012.65 1012.08 1011.61 1011.25 1011.00 1010.82 1010.70 1010.59 1010.47 1010.32 1010.14 1009.94 1009.73 1009.53 1009.35 1009.19 1009.05 1008.93 1008.83 1008.73 1008.64 1008.56 1008.49 1008.44 1008.40 1008.39 1008.39 1008.39 1008.39 1008.38 1008.35 1008.30 1008.23 1008.14 1008.03
1016.48 1016.21 1015.93 1015.60 1015.16 1014.63 1014.01 1013.35 1012.70 1012.10 1011.59 1011.19 1010.90 1010.69 1010.54 1010.43 1010.30 1010.16 1010.00 1009.81 1009.61 1009.40 1009.21 1009.05 1008.91 1008.80 1008.71 1008.64 1008.58 1008.54 1008.50 1008.47 1008.44 1008.41 1008.38 1008.34 1008.30 1008.26 1008.21 1008.15 1008.10 1008.04 1007.97
1016.71 1016.45 1016.17 1015.81 1015.36 1014.81 1014.17 1013.49 1012.81 1012.18 1011.64 1011.19 1010.85 1010.61 1010.43 1010.29 1010.16 1010.02 1009.87 1009.69 1009.51 1009.32 1009.15 1008.99 1008.87 1008.78 1008.72 1008.68 1008.66 1008.64 1008.62 1008.60 1008.56 1008.50 1008.43 1008.34 1008.24 1008.15 1008.05 1007.98 1007.91 1007.87 1007.82
1017.00 1016.75 1016.44 1016.05 1015.57 1015.00 1014.34 1013.65 1012.95 1012.30 1011.72 1011.24 1010.86 1010.58 1010.36 1010.20 1010.06 1009.93 1009.79 1009.63 1009.47 1009.32 1009.17 1009.04 1008.95 1008.88 1008.85 1008.83 1008.83 1008.83 1008.82 1008.78 1008.72 1008.62 1008.50 1008.35 1008.19 1008.03 1007.89 1007.77 1007.69 1007.63 1007.59
1017.32 1017.03 1016.69 1016.26 1015.74 1015.14 1014.47 1013.77 1013.06 1012.40 1011.81 1011.30 1010.89 1010.58 1010.34 1010.16 1010.01 1009.88 1009.76 1009.64 1009.51 1009.39 1009.27 1009.17 1009.10 1009.05 1009.03 1009.02 1009.02 1009.02 1008.99 1008.94 1008.84 1008.71 1008.53 1008.32 1008.10 1007.88 1007.68 1007.52 1007.39 1007.31 1007.26
1017.60 1017.27 1016.86 1016.37 1015.81 1015.17 1014.49 1013.78 1013.08 1012.42 1011.83 1011.31 1010.89 1010.56 1010.31 1010.13 1009.99 1009.87 1009.77 1009.68 1009.59 1009.49 1009.41 1009.33 1009.26 1009.21 1009.17 1009.15 1009.13 1009.11 1009.06 1008.97 1008.84 1008.67 1008.45 1008.19 1007.92 1007.65 1007.40 1007.18 1007.01 1006.89 1006.81
1017.80 1017.39 1016.90 1016.35 1015.73 1015.06 1014.36 1013.65 1012.97 1012.33 1011.75 1011.25 1010.84 1010.51 1010.26 1010.08 1009.96 1009.86 1009.79 1009.73 1009.66 1009.59 1009.51 1009.43 1009.35 1009.28 1009.21 1009.15 1009.09 1009.02 1008.94 1008.82 1008.66 1008.46 1008.21 1007.92 1007.61 1007.30 1007.00 1006.74 1006.52 1006.36 1006.24
1017.86 1017.37 1016.80 1016.17 1015.50 1014.80 1014.09 1013.40 1012.73 1012.12 1011.57 1011.10 1010.71 1010.40 1010.17 1010.01 1009.90 1009.83 1009.78 1009.73 1009.68 1009.62 1009.53 1009.43 1009.32 1009.20 1009.08 1008.97 1008.85 1008.74 1008.61 1008.47 1008.28 1008.06 1007.80 1007.50 1007.17 1006.83 1006.50 1006.19 1005.93 1005.71 1005.54
1017.78 1017.20 1016.56 1015.87 1015.15 1014.43 1013.73 1013.05 1012.42 1011.85 1011.33 1010.90 1010.53 1010.25 1010.04 1009.90 1009.81 1009.76 1009.72 1009.69 1009.63 1009.56 1009.45 1009.31 1009.15 1008.98 1008.80 1008.62 1008.45 1008.29 1008.13 1007.96 1007.77 1007.55 1007.28 1006.98 1006.64 1006.29 1005.93 1005.58 1005.26 1004.98 1004.75
1017.56 1016.92 1016.22 1015.49 1014.76 1014.04 1013.35 1012.70 1012.10 1011.56 1011.09 1010.68 1010.35 1010.09 1009.91 1009.78 1009.70 1009.66 1009.63 1009.58 1009.52 1009.42 1009.27 1009.09 1008.87 1008.64 1008.40 1008.17 1007.96 1007.76 1007.58 1007.40 1007.20 1006.99 1006.73 1006.44 1006.10 1005.73 1005.34 1004.95 1004.58 1004.24 1003.95
1017.23 1016.56 1015.84 1015.11 1014.38 1013.67 1013.01 1012.39 1011.82 1011.32 1010.88 1010.50 1010.20 1009.96 1009.78 1009.67 1009.59 1009.55 1009.50 1009.44 1009.35 1009.22 1009.04 1008.80 1008.54 1008.26 1007.97 1007.70 1007.45 1007.24 1007.05 1006.87 1006.69 1006.48 1006.24 1005.95 1005.61 1005.22 1004.80 1004.36 1003.94 1003.53 1003.17
1016.85 1016.19 1015.48 1014.77 1014.06 1013.39 1012.75 1012.16 1011.63 1011.15 1010.73 1010.38 1010.08 1009.85 1009.69 1009.57 1009.49 1009.42 1009.36 1009.28 1009.16 1008.99 1008.77 1008.50 1008.20 1007.88 1007.57 1007.28 1007.02 1006.80 1006.61 1006.44 1006.27 1006.08 1005.84 1005.55 1005.20 1004.78 1004.33 1003.84 1003.36 1002.89 1002.46
1016.46 1015.83 1015.16 1014.49 1013.82 1013.18 1012.57 1012.01 1011.50 1011.04 1010.63 1010.28 1009.99 1009.77 1009.59 1009.47 1009.38 1009.30 1009.21 1009.10 1008.95 1008.75 1008.50 1008.20 1007.87 1007.54 1007.22 1006.92 1006.67 1006.46 1006.28 1006.12 1005.96 1005.77 1005.53 1005.23 1004.85 1004.41 1003.91 1003.38 1002.84 1002.32 1001.84
1016.09 1015.51 1014.89 1014.26 1013.64 1013.02 1012.44 1011.89 1011.39 1010.93 1010.52 1010.18 1009.89 1009.66 1009.48 1009.34 1009.24 1009.14 1009.03 1008.90 1008.72 1008.49 1008.22 1007.90 1007.56 1007.22 1006.90 1006.62 1006.37 1006.17 1006.01 1005.85 1005.69 1005.49 1005.24 1004.91 1004.51 1004.03 1003.49 1002.93 1002.35 1001.79 1001.27
1015.74 1015.21 1014.64 1014.05 1013.45 1012.86 1012.28 1011.73 1011.22 1010.76 1010.35 1010.00 1009.71 1009.48 1009.30 1009.16 1009.05 1008.94 1008.82 1008.66 1008.46 1008.21 1007.92 1007.59 1007.24 1006.90 1006.59 1006.30 1006.07 1005.87 1005.71 1005.55 1005.38 1005.16 1004.88 1004.52 1004.09 1003.58 1003.02 1002.42 1001.83 1001.25 1000.72
1015.41 1014.91 1014.37 1013.80 1013.21 1012.62 1012.03 1011.47 1010.94 1010.47 1010.05 1009.70 1009.42 1009.20 1009.03 1008.90 1008.79 1008.68 1008.55 1008.38 1008.16 1007.89 1007.58 1007.24 1006.88 1006.53 1006.21 1005.92 1005.68 1005.48 1005.30 1005.12 1004.92 1004.68 1004.37 1003.98 1003.52 1002.99 1002.42 1001.82 1001.23 1000.67 1000.15
1015.07 1014.59 1014.05 1013.47 1012.86 1012.25 1011.63 1011.05 1010.50 1010.02 1009.60 1009.26 1008.99 1008.80 1008.66 1008.55 1008.46 1008.36 1008.23 1008.05 1007.82 1007.53 1007.19 1006.83 1006.45 1006.07 1005.73 1005.42 1005.16 1004.93 1004.72 1004.51 1004.28 1004.00 1003.66 1003.25 1002.77 1002.25 1001.68 1001.11 1000.55 1000.02 999.53
Thickness
5758 5757 5755 5752 5748 5744 5741 5737 5732 5728 5726 5722 5717 5712 5710 5708 5706 5705 5704 5701 5699 5697 5695 5692 5689 5687 5684 5682 5680 5678 5675 5673 5672 5669 5668 5670 5671 5669 5669 5668 5666 5666 5665
5748 5748 5746 5744 5742 5738 5734 5731 5727 5722 5719 5716 5712 5709 5705 5702 5700 5699 5697 5695 5693 5691 5689 5686 5684 5681 5678 5676 5674 5671 5667 5666 5665 5661 5657 5656 5658 5660 5663 5660 5659 5658 5658
5741 5740 5738 5735 5733 5731 5728 5725 5721 5717 5713 5710 5707 5703 5699 5695 5692 5691 5689 5688 5687 5685 5682 5680 5678 5675 5673 5670 5668 5665 5662 5658 5658 5656 5651 5646 5644 5647 5651 5651 5651 5650 5650
5737 5734 5731 5727 5725 5724 5722 5718 5714 5711 5707 5703 5699 5694 5690 5686 5685 5684 5683 5682 5681 5679 5677 5674 5672 5670 5667 5664 5662 5660 5657 5653 5650 5649 5647 5644 5641 5638 5638 5641 5642 5642 5642
5729 5726 5725 5723 5720 5718 5715 5711 5707 5703 5700 5696 5693 5688 5684 5682 5680 5679 5677 5675 5674 5673 5672 5669 5666 5664 5661 5659 5657 5655 5652 5649 5645 5642 5640 5638 5636 5634 5630 5630 5632 5634 5635
5723 5719 5717 5715 5712 5709 5707 5703 5699 5695 5692 5689 5686 5682 5678 5676 5673 5672 5670 5668 5667 5666 5665 5663 5660 5658 5655 5653 5652 5649 5647 5644 5641 5638 5635 5632 5629 5627 5624 5622 5623 5624 5627
5714 5710 5708 5706 5703 5700 5697 5695 5691 5687 5684 5681 5678 5675 5673 5670 5668 5666 5663 5661 5660 5659 5659 5658 5654 5652 5650 5648 5646 5644 5642 5639 5636 5633 5631 5628 5626 5624 5620 5617 5616 5616 5619
5707 5704 5700 5697 5695 5692 5688 5687 5684 5680 5677 5674 5671 5669 5666 5663 5663 5662 5659 5657 5655 5655 5654 5652 5650 5648 5646 5644 5642 5639 5637 5634 5632 5630 5627 5624 5622 5620 5617 5613 5610 5610 5610
5700 5697 5694 5691 5688 5684 5682 5681 5677 5674 5671 5669 5666 5663 5661 5659 5657 5657 5655 5653 5652 5651 5650 5648 5646 5643 5641 5639 5636 5633 5631 5629 5627 5624 5622 5619 5618 5616 5613 5609 5606 5603 5603
5692 5689 5686 5684 5682 5679 5676 5673 5671 5668 5666 5663 5660 5659 5656 5654 5653 5652 5651 5650 5649 5647 5646 5643 5641 5638 5636 5634 5631 5628 5626 5623 5621 5619 5616 5614 5612 5610 5608 5605 5603 5600 5598
5684 5681 5678 5677 5675 5672 5669 5666 5663 5661 5658 5656 5655 5653 5651 5650 5649 5648 5647 5647 5645 5644 5641 5640 5637 5634 5632 5629 5626 5624 5622 5619 5617 5615 5612 5609 5607 5605 5603 5601 5599 5597 5594
5677 5675 5672 5670 5667 5666 5663 5660 5657 5655 5653 5652 5650 5648 5647 5646 5645 5644 5644 5644 5642 5641 5638 5636 5633 5631 5628 5625 5622 5619 5618 5615 5612 5610 5607 5605 5604 5601 5598 5596 5595 5593 5591
5673 5669 5666 5663 5661 5659 5657 5655 5653 5650 5648 5646 5644 5643 5642 5641 5641 5640 5641 5640 5639 5637 5635 5633 5629 5627 5624 5621 5619 5616 5613 5611 5608 5605 5602 5600 5598 5596 5594 5592 5590 5589 5589
5668 5664 5660 5657 5655 5653 5651 5649 5647 5646 5644 5641 5639 5638 5638 5638 5637 5637 5636 5636 5635 5634 5632 5629 5627 5624 5621 5618 5615 5612 5609 5606 5604 5601 5599 5596 5594 5592 5590 5589 5587 5585 5584
5664 5660 5656 5653 5650 5647 5646 5644 5643 5642 5640 5638 5636 5635 5635 5634 5634 5633 5632 5632 5632 5631 5629 5626 5624 5621 5618 5615 5611 5608 5606 5602 5599 5598 5596 5594 5592 5590 5587 5585 5582 5581 5579
5661 5656 5654 5651 5647 5645 5643 5641 5639 5638 5636 5635 5633 5633 5632 5631 5629 5629 5628 5627 5627 5626 5625 5622 5620 5617 5615 5612 5609 5605 5601 5598 5596 5593 5592 5590 5588 5586 5584 5581 5580 5577 5575
5658 5654 5651 5648 5645 5643 5641 5638 5637 5635 5634 5632 5631 5630 5629 5627 5627 5626 5625 5623 5622 5622 5621 5619 5616 5613 5611 5609 5605 5602 5598 5594 5592 5590 5587 5586 5585 5581 5578 5576 5575 5574 5572
5654 5651 5649 5646 5643 5642 5639 5637 5635 5633 5631 5630 5628 5627 5626 5625 5624 5623 5622 5620 5620 5619 5618 5616 5613 5611 5609 5606 5603 5600 5595 5592 5589 5586 5584 5580 5578 5576 5573 5570 5569 5568 5568
5651 5649 5647 5645 5642 5639 5637 5634 5632 5631 5629 5627 5626 5625 5624 5623 5622 5620 5619 5619 5618 5617 5615 5614 5611 5608 5606 5604 5601 5597 5592 5589 5586 5583 5581 5577 5573 5571 5568 5565 5563 5563 5563
5648 5647 5646 5644 5640 5638 5635 5632 5630 5628 5626 5625 5624 5624 5623 5621 5620 5619 5618 5618 5617 5616 5614 5612 5609 5607 5604 5603 5599 5595 5590 5585 5582 5579 5576 5573 5569 5566 5563 5560 5557 5556 5557
5648 5646 5644 5641 5639 5637 5635 5631 5628 5626 5625 5624 5623 5622 5621 5620 5619 5618 5618 5617 5616 5614 5612 5609 5607 5605 5603 5601 5598 5593 5586 5581 5577 5574 5571 5569 5566 5562 5560 5557 5553 5552 5551
5646 5645 5642 5639 5637 5636 5633 5630 5628 5627 5625 5623 5621 5620 5620 5620 5620 5618 5618 5617 5615 5612 5610 5607 5604 5602 5601 5598 5595 5591 5585 5580 5573 5570 5567 5564 5561 5558 5556 5554 5552 5550 5547
5644 5642 5640 5637 5635 5634 5633 5629 5628 5627 5625 5622 5620 5619 5619 5619 5619 5618 5617 5615 5613 5610 5608 5605 5601 5599 5598 5595 5592 5588 5583 5578 5571 5567 5564 5560 5557 5555 5552 5551 5548 5546 5542
5642 5640 5638 5635 5633 5633 5632 5630 5629 5628 5625 5622 5620 5619 5618 5618 5618 5617 5617 5615 5612 5610 5607 5604 5601 5598 5595 5592 5589 5584 5579 5575 5570 5564 5560 5558 5554 5551 5548 5546 5543 5540 5536
5640 5639 5636 5634 5633 5633 5631 5631 5630 5628 5625 5622 5621 5619 5618 5617 5617 5617 5616 5615 5615 5613 5609 5605 5602 5598 5594 5592 5587 5581 5576 5571 5566 5561 5557 5553 5549 5546 5543 5540 5537 5534 5530
5639 5637 5635 5634 5633 5633 5632 5632 5631 5629 5626 5623 5621 5620 5619 5618 5618 5617 5617 5618 5616 5615 5613 5608 5604 5600 5596 5592 5586 5581 5576 5570 5565 5559 5553 5548 5544 5540 5537 5533 5530 5527 5523